Weather in Suzanovo

Russia / Orenburg Oblast     52°07′37″N   53°48′22″E
temp.,
°C
wind,
m/s
gust,
m/s
humid.,
%
clouds,
%
prec.,
mm/h
press.,
hPa
HPBL,
m
7 march, sun
sun723:00−7ne1193100 0.0 101321
02:00−7nne3496100 0.8 1011130
05:00−8nne5895100 1.4 1010291
08:00−11n3789100 0.1 1010186
11:00−12nnw488592 0.1 1012223
14:00−10nw35830 0.0 1013263
17:00−9w24900 0.0 1013136
20:00−14sw34903 0.0 101436
8 march, mon
mon823:00−14ssw499547 0.0 1015176
02:00−13ssw5109799 0.1 1013253
05:00−10ssw9179299 0.1 1011553
08:00−8ssw101892100 0.3 1008793
11:00−5sw121892100 0.8 1007993
14:00−3sw101592100 0.6 10071045
17:00−3sw91390100 0.8 1008998
20:00−3sw61296100 0.3 1009654
9 march, tue
tue923:00−3ssw71296100 0.8 1009643
02:00−3ssw81495100 0.5 1007658
05:00−3sw81495100 1.0 1006678
08:00−3sw81495100 0.4 1007685
11:00−3wnw6993100 1.7 1008602
14:00−5wnw3484100 0.1 1009369
17:00−4n1277100 0.1 1009298
20:00−7nne4695100 0.9 1007408
10 march, wed
wed1023:00−8n4795100 2.8 1007322
02:00−11nw479698 0.4 1008191
05:00−15wnw479894 0.4 1010126
08:00−17wnw369997 0.0 1011114
11:00−15wnw479698 0.1 1012251
14:00−13wnw4693100 0.0 1014407
17:00−12wnw5791100 0.1 1015682
20:00−16wnw4797100 0.2 1016145
11 march, thu
thu1123:00−20wnw4799100 0.3 1018160
02:00−21nw3310095 0.1 101957
05:00−22nw359997 0.1 1021105
08:00−25nw3410093 0.0 102254
11:00−24nw249794 0.1 1025173
14:00−21wnw349361 0.0 1026256
17:00−20w359234 0.0 1026279
20:00−24wsw34930 0.0 102746